Вернуться в каталог

STARLINK-34190

АктивенСвязьVLEO
NORAD 64078·PAYLOAD·🇺🇸 United States

Запущен May 21, 2025 с Cape Canaveral Space Force Station

Loading…

Ближайшие Пролёты (ближайшие 24 часа)

TLE

СвежийSource: CelesTrak SupGP

Эпоха: Sep 14, 2026, 21:34 UTC

1 64078C 25107Q   26257.89909722  .00017852  00000+0  64654-3 0  2575
2 64078  43.0027 212.9427 0001217 258.6699 265.9471 15.27572559    19

Отслеживайте STARLINK-34190 в реальном времени с AllMySat

Download on the App Store